Christmas Island, Christmas Island

10:09 AM +07 on May 24, 2018 (GMT +0700)
Christmas Island

Weather History for YPXM - December, 2013

Change the Weather History Date:

Tuesday, December 17, 2013

  Actual Average Record
Temperature  
Mean Temperature 76 °F -  
Max Temperature 80 °F 79 °F 83 °F (2017)
Min Temperature 73 °F 71 °F 69 °F (1999)
Cooling Degree Days 12    
Growing Degree Days 26 (Base 50)    
Moisture  
Dew Point 74 °F    
Average Humidity 93    
Maximum Humidity 100    
Minimum Humidity 83    
Precipitation  
Precipitation 0.02 in - - ()
Sea Level Pressure  
Sea Level Pressure 29.80 in    
Wind  
Wind Speed 5 mph ()    
Max Wind Speed 18 mph    
Max Gust Speed -    
Visibility 6.2 miles    
Events Rain    
Averages and records for this station are not official NWS values.
T = Trace of Precipitation, MM = Missing Value Source: Averaged Metar Reports

Daily Weather History Graph

Daily Weather History Graph

Search for Another Location

Airport or City:

Astronomy

Dec. 17, 2013 Rise Set
Actual Time 5:31 AM +07 6:15 PM +07
Civil Twilight 5:08 AM +07 6:38 PM +07
Nautical Twilight 4:41 AM +07 7:05 PM +07
Astronomical Twilight 4:13 AM +07 7:33 PM +07
Moon 6:12 PM +07 (12/17) 5:16 AM +07 (12/17)
Length of Visible Light 13h 30m
Length of Day
12h 44m
Full, 100% of the Moon is Illuminated
Dec 17
Full
Dec 17
Full
Dec 25
Last Quarter
Jan 1
New
Jan 8
First Quarter

Hourly Weather History & Observations

Time (+07) Temp. Dew Point Humidity Pressure Visibility Wind Dir Wind Speed Gust Speed Precip Events Conditions
12:00 AM 74 °F 73 °F 96% 29.82 in - Calm Calm - -  
12:00 AM 73.4 °F 73.4 °F 100% 29.86 in - Calm Calm - N/A   Unknown
1:00 AM 75 °F 74 °F 95% 29.80 in - South 3.5 mph - -  
1:00 AM 75.2 °F 73.4 °F 94% 29.83 in - South 3.5 mph - N/A   Unknown
2:00 AM 75.2 °F 75.2 °F 100% 29.80 in - South 1.2 mph - N/A   Unknown
3:00 AM 76 °F 76 °F 98% 29.75 in - SE 8.1 mph - -   Overcast
3:00 AM 77.0 °F 75.2 °F 94% 29.80 in - SE 8.1 mph - N/A   Overcast
4:00 AM 76 °F 76 °F 98% 29.75 in - ESE 8.1 mph - -  
4:00 AM 77.0 °F 75.2 °F 94% 29.77 in - ESE 8.1 mph - N/A   Overcast
5:00 AM 77.0 °F 75.2 °F 94% 29.80 in - East 8.1 mph - N/A   Overcast
5:26 AM 77.0 °F 73.4 °F 89% 29.80 in 6.2 mi East 5.8 mph - N/A   Scattered Clouds
6:00 AM 77 °F 75 °F 92% 29.77 in - East 6.9 mph - -   Overcast
6:00 AM 77.0 °F 75.2 °F 94% 29.80 in - East 6.9 mph - N/A   Overcast
6:35 AM 77.0 °F 75.2 °F 94% 29.83 in 6.2 mi East 8.1 mph - N/A   Mostly Cloudy
7:00 AM 78 °F 76 °F 92% 29.80 in - East 8.1 mph - -  
7:00 AM 78.8 °F 77.0 °F 94% 29.83 in 6.2 mi East 8.1 mph - N/A   Overcast
8:00 AM 78.8 °F 75.2 °F 89% 29.83 in 6.2 mi NE 12.7 mph - N/A   Mostly Cloudy
9:00 AM 75 °F 73 °F 92% 29.83 in - North 18.4 mph - -   Overcast
9:00 AM 75.2 °F 73.4 °F 94% 29.86 in 6.2 mi North 18.4 mph - N/A Rain Light Rain Showers
9:55 AM 77.0 °F 73.4 °F 89% 29.86 in 6.2 mi North 16.1 mph - N/A Rain Light Rain Showers
10:00 AM 77 °F 74 °F 87% 29.82 in - North 16.1 mph - -  
10:00 AM 77.0 °F 73.4 °F 89% 29.86 in 6.2 mi North 16.1 mph - N/A Rain Light Rain Showers
11:00 AM 77.0 °F 73.4 °F 89% 29.83 in 6.2 mi North 9.2 mph - N/A Rain Light Rain Showers
11:57 AM 77.0 °F 73.4 °F 89% 29.83 in 6.2 mi North 6.9 mph - N/A   Drizzle
12:00 PM 76 °F 73 °F 88% 29.79 in - North 6.9 mph - -  
12:00 PM 75.2 °F 73.4 °F 94% 29.83 in 6.2 mi North 6.9 mph - N/A Rain Light Rain
1:00 PM 76 °F 72 °F 84% 29.76 in - NNE 5.8 mph - -  
1:00 PM 77.0 °F 71.6 °F 83% 29.80 in 6.2 mi NNE 5.8 mph - N/A Rain Light Rain
2:00 PM 77.0 °F 73.4 °F 89% 29.77 in 6.2 mi NNE 8.1 mph - N/A Rain Light Rain
3:00 PM 78 °F 75 °F 86% 29.73 in - North 5.8 mph - -   Overcast
3:00 PM 78.8 °F 75.2 °F 89% 29.77 in 6.2 mi North 5.8 mph - N/A Rain Light Rain
4:00 PM 76 °F 75 °F 94% 29.73 in - NW 5.8 mph - -  
4:00 PM 77.0 °F 75.2 °F 94% 29.77 in 6.2 mi NW 5.8 mph - N/A Rain Light Rain
5:00 PM 77.0 °F 75.2 °F 94% 29.74 in - NW 4.6 mph - N/A   Light Drizzle
6:00 PM 76 °F 74 °F 94% 29.72 in - SSE 2.3 mph - -  
6:00 PM 77.0 °F 75.2 °F 94% 29.74 in - SSE 2.3 mph - N/A   Scattered Clouds
7:00 PM 76 °F 75 °F 94% 29.76 in - Calm Calm - -  
7:00 PM 75.2 °F 75.2 °F 100% 29.80 in - Calm Calm - N/A   Scattered Clouds
8:00 PM 75.2 °F 73.4 °F 94% 29.83 in - Calm Calm - N/A   Mostly Cloudy
9:00 PM 74 °F 73 °F 96% 29.81 in - NNW 1.2 mph - -  
9:00 PM 75.2 °F 73.4 °F 94% 29.86 in 6.2 mi NNW 1.2 mph - N/A   Unknown
10:00 PM 74 °F 73 °F 94% 29.81 in - West 3.5 mph - -  
10:00 PM 73.4 °F 73.4 °F 100% 29.86 in - West 3.5 mph - N/A   Unknown
11:00 PM 73.4 °F 71.6 °F 94% 29.86 in - West 3.5 mph - N/A   Unknown